Weather History for Greenville, AL

Change the Weather History Date:

Sunday, February 10, 2013

  Actual Average Record
Temperature  
Mean Temperature 58 °F -  
Max Temperature 69 °F 58 °F 82 °F (1932)
Min Temperature 46 °F 34 °F 12 °F (1971)
Degree Days  
Heating Degree Days 8    
Growing Degree Days 8 (Base 50)    
Moisture  
Dew Point 55 °F    
Average Humidity 86    
Maximum Humidity 96    
Minimum Humidity 64    
Precipitation  
Precipitation 2.09 in - - ()
Sea Level Pressure  
Sea Level Pressure 30.07 in    
Wind  
Wind Speed 8 mph (SE)    
Max Wind Speed 18 mph    
Max Gust Speed 28 mph    
Visibility 8 miles    
Events Rain , Thunderstorm    
Averages and records for this station are not official NWS values.
T = Trace of Precipitation, MM = Missing Value Source: NWS Daily Summary

Daily Weather History Graph

Daily Weather History Graph

Search for Another Location

Airport:

Trip Planner

Search our weather history database for the weather conditions in past years. The results will help you decide how hot, cold, wet, or windy it might be!

Date:

Astronomy

Feb. 10, 2013 Rise Set
Actual Time 6:32 AM CST 5:29 PM CST
Civil Twilight 6:07 AM CST 5:54 PM CST
Nautical Twilight 5:38 AM CST 6:22 PM CST
Astronomical Twilight 5:10 AM CST 6:51 PM CST
Moon 6:26 AM CST (2/10) 6:12 PM CST (2/10)
Length of Visible Light 11h 46m
Length of Day
10h 56m
New Moon, 0% of the Moon is Illuminated
Feb 10
New Moon
Feb 17
First Quarter
Feb 25
Full
Mar 4
Last Quarter
Mar 11
New

Hourly Weather History & Observations

Time (CST) Temp. Dew Point Humidity Pressure Visibility Wind Dir Wind Speed Gust Speed Precip Events Conditions
12:56 AM 48.0 °F 39.0 °F 71% 30.16 in 10.0 mi ESE 4.6 mph - N/A   Clear
1:56 AM 48.0 °F 39.0 °F 71% 30.16 in 10.0 mi ESE 4.6 mph - N/A   Clear
2:56 AM 46.9 °F 39.0 °F 74% 30.17 in 10.0 mi East 4.6 mph - N/A   Clear
3:56 AM 46.9 °F 39.9 °F 77% 30.16 in 10.0 mi ESE 4.6 mph - N/A   Clear
4:56 AM 46.9 °F 41.0 °F 80% 30.16 in 10.0 mi SE 4.6 mph - N/A   Clear
5:56 AM 46.9 °F 41.0 °F 80% 30.14 in 10.0 mi ESE 8.1 mph - N/A   Clear
6:56 AM 48.0 °F 42.1 °F 80% 30.12 in 10.0 mi ESE 11.5 mph 19.6 mph N/A   Clear
7:56 AM 51.1 °F 44.1 °F 77% 30.16 in 10.0 mi SSE 6.9 mph - N/A   Overcast
8:21 AM 51.8 °F 44.6 °F 76% 30.16 in 10.0 mi Variable 6.9 mph - N/A   Overcast
8:56 AM 53.1 °F 46.0 °F 77% 30.16 in 10.0 mi SSE 5.8 mph 17.3 mph N/A   Overcast
9:12 AM 55.4 °F 46.4 °F 72% 30.15 in 10.0 mi SE 6.9 mph - N/A   Overcast
9:56 AM 57.9 °F 48.9 °F 72% 30.15 in 10.0 mi SE 9.2 mph 17.3 mph N/A   Overcast
10:28 AM 60.8 °F 51.8 °F 72% 30.13 in 10.0 mi SE 12.7 mph 18.4 mph N/A   Overcast
10:56 AM 61.0 °F 51.1 °F 70% 30.11 in 10.0 mi SSE 16.1 mph 23.0 mph N/A   Overcast
11:56 AM 62.1 °F 53.1 °F 72% 30.08 in 10.0 mi SE 12.7 mph 19.6 mph N/A   Overcast
12:56 PM 64.9 °F 55.0 °F 70% 30.03 in 10.0 mi SSE 12.7 mph 19.6 mph N/A   Overcast
1:56 PM 68.0 °F 57.0 °F 68% 30.00 in 10.0 mi SSE 15.0 mph 20.7 mph N/A   Scattered Clouds
2:22 PM 69.8 °F 57.2 °F 64% 30.00 in 10.0 mi SSE 10.4 mph 25.3 mph N/A   Overcast
2:56 PM 68.0 °F 57.9 °F 70% 29.99 in 10.0 mi SSE 13.8 mph 20.7 mph N/A   Overcast
3:56 PM 64.9 °F 61.0 °F 87% 29.98 in 5.0 mi SSE 9.2 mph - 0.04 in Rain , Thunderstorm Thunderstorms and Rain
4:16 PM 64.4 °F 60.8 °F 88% 29.99 in 10.0 mi South 5.8 mph - 0.01 in Rain Light Rain
4:41 PM 64.4 °F 62.6 °F 94% 30.00 in 2.5 mi South 5.8 mph - 0.08 in Rain Heavy Rain
4:48 PM 64.4 °F 62.6 °F 94% 30.00 in 5.0 mi South 5.8 mph - 0.10 in Rain Rain
4:56 PM 64.0 °F 62.1 °F 93% 30.00 in 6.0 mi South 8.1 mph - 0.11 in Rain Light Rain
5:14 PM 64.4 °F 62.6 °F 94% 30.00 in 2.5 mi South 8.1 mph - 0.09 in Rain , Thunderstorm Heavy Thunderstorms and Rain
5:26 PM 64.4 °F 62.6 °F 94% 29.99 in 1.8 mi SSE 8.1 mph - 0.27 in Rain , Thunderstorm Heavy Thunderstorms and Rain
5:34 PM 64.4 °F 62.6 °F 94% 30.01 in 1.8 mi SSE 10.4 mph - 0.33 in Rain , Thunderstorm Heavy Thunderstorms and Rain
5:41 PM 64.4 °F 62.6 °F 94% 30.01 in 2.5 mi South 6.9 mph 16.1 mph 0.40 in Rain , Thunderstorm Heavy Thunderstorms and Rain
5:51 PM 64.4 °F 62.6 °F 94% 30.01 in 5.0 mi SSE 8.1 mph - 0.43 in Rain , Thunderstorm Thunderstorms and Rain
5:56 PM 64.9 °F 62.1 °F 90% 30.01 in 5.0 mi South 6.9 mph - 0.45 in Rain , Thunderstorm Thunderstorms and Rain
6:10 PM 64.4 °F 62.6 °F 94% 30.03 in 5.0 mi SW 3.5 mph - 0.03 in Rain , Thunderstorm Thunderstorms and Rain
6:24 PM 60.8 °F 59.0 °F 94% 30.07 in 2.5 mi NNW 18.4 mph 27.6 mph 0.19 in Rain , Thunderstorm Heavy Thunderstorms and Rain
6:28 PM 60.8 °F 57.2 °F 88% 30.05 in 1.2 mi North 13.8 mph 23.0 mph 0.40 in Rain , Thunderstorm Heavy Thunderstorms and Rain
6:35 PM 59.0 °F 57.2 °F 94% 30.04 in 1.0 mi NNE 11.5 mph - 0.64 in Rain , Thunderstorm Heavy Thunderstorms and Rain
6:56 PM 59.0 °F 57.9 °F 96% 30.10 in 1.0 mi North 9.2 mph - 1.30 in Rain , Thunderstorm Heavy Thunderstorms and Rain
7:05 PM 59.0 °F 57.2 °F 94% 30.05 in 1.8 mi NNE 8.1 mph - 0.08 in Rain , Thunderstorm Thunderstorms and Rain
7:07 PM 59.0 °F 57.2 °F 94% 30.05 in 3.0 mi NE 6.9 mph - 0.08 in Rain , Thunderstorm Light Thunderstorms and Rain
7:20 PM 59.0 °F 57.2 °F 94% 30.06 in 10.0 mi North 6.9 mph - 0.09 in Rain , Thunderstorm Light Thunderstorms and Rain
7:33 PM 59.0 °F 57.2 °F 94% 30.06 in 8.0 mi Variable 3.5 mph - 0.11 in Rain , Thunderstorm Thunderstorms and Rain
7:47 PM 59.0 °F 57.2 °F 94% 30.05 in 10.0 mi NE 6.9 mph - 0.12 in Rain , Thunderstorm Light Rain
7:51 PM 59.0 °F 57.2 °F 94% 30.05 in 10.0 mi NE 5.8 mph - 0.12 in Rain Light Rain
7:56 PM 60.1 °F 57.9 °F 93% 30.05 in 10.0 mi NE 5.8 mph - 0.12 in Rain Light Rain
8:56 PM 60.1 °F 57.9 °F 93% 30.06 in 10.0 mi East 9.2 mph - 0.00 in   Overcast
9:19 PM 60.8 °F 57.2 °F 88% 30.07 in 10.0 mi East 6.9 mph - N/A   Overcast
9:31 PM 60.8 °F 57.2 °F 88% 30.06 in 10.0 mi East 8.1 mph - N/A Thunderstorm Thunderstorm
9:47 PM 60.8 °F 57.2 °F 88% 30.07 in 10.0 mi ESE 3.5 mph - 0.00 in Rain , Thunderstorm Light Thunderstorms and Rain
9:56 PM 59.0 °F 57.9 °F 96% 30.06 in 10.0 mi ESE 6.9 mph - 0.01 in Rain , Thunderstorm Light Thunderstorms and Rain
10:34 PM 59.0 °F 57.2 °F 94% 30.05 in 10.0 mi East 8.1 mph - 0.04 in Thunderstorm Thunderstorm
10:49 PM 59.0 °F 57.2 °F 94% 30.05 in 10.0 mi ESE 10.4 mph - 0.04 in   Overcast
10:56 PM 59.0 °F 57.9 °F 96% 30.08 in 10.0 mi Variable 3.5 mph - 0.04 in   Overcast
11:18 PM 60.8 °F 57.2 °F 88% 30.07 in 10.0 mi Variable 5.8 mph - 0.02 in Rain Light Rain
11:48 PM 59.0 °F 57.2 °F 94% 30.06 in 10.0 mi SE 5.8 mph - 0.02 in Rain , Thunderstorm Light Thunderstorms and Rain
11:56 PM 59.0 °F 57.9 °F 96% 30.05 in 10.0 mi ESE 10.4 mph - 0.02 in Rain , Thunderstorm Light Thunderstorms and Rain